Content
SEND FEEDBACK

Daily
Averages
Monthly
Summary
United States of America

GOSHEN, UTAH


Home > North America > United States > Utah
Elevation: 7239 feet     Latitude: 39 57N     Longitude: 112 07W

WEATHER
 
SELECT A DAY
Number of Records: 398,704;   Date Range: 1/1/95 - 7/23/14
 
SHARE

PRINT THIS DATA

[ ← Previous Day ]
WEATHER ALMANAC - FEBRUARY 5, 2013
[ Next Day → ]
[ °C ]   °F
Weather ElementAverageHighLow
Temperature18.8 °F33.8 °F (1:47 pm)8.6 °F (1:15 am)
Dewpoint16.3 °F28.4 °F (6:50 pm)5 °F (2:35 am)
Humidity90.1 %100 % (12:35 am)65 % (1:47 pm)
Barometer30.09 in30.20 in (12:35 am)29.93 in (11:15 pm)
Wind Speed1.6 mph8.1 mph (7:55 pm)
Weather ElementAverage
Visibility3.3 mi
Wind DirectionENE (72.1 °)

Weather ElementTotal
Precipitation---
Heating Degree Days43.8 (Base 65)
Averaged from 43 records on February 5, 2013
WEATHER CONDITIONS BREAKOUT
WIND DIRECTION BREAKOUT
WEATHER BY HOUR - FEBRUARY 5, 2013
[ °C ]   °F
Local TimeTemperatureDewpointHumidityBarometerVisibilityWind DirectionWind SpeedGust SpeedPrecipitationEventsConditions
12:35 AM14.0 °F14.0 °F100 %30.20 in1.8 miCalmClear
12:55 AM12.2 °F10.4 °F92 %30.20 in2.5 miCalmClear
1:15 AM8.6 °F6.8 °F92 %30.19 in0.5 miCalm
1:35 AM10.4 °F8.6 °F92 %30.19 in0.5 miCalm
1:55 AM10.4 °F8.6 °F92 %30.19 in0.2 miNorth (10°)3.5 mph
2:15 AM10.4 °F8.6 °F92 %30.19 in3.0 miCalmClear
2:35 AM8.6 °F5.0 °F85 %30.19 in3.0 miNorth (360°)5.8 mphScattered Clouds
2:55 AM12.2 °F12.2 °F100 %30.18 in2.0 miNorth (10°)3.5 mphOvercast
3:15 AM12.2 °F12.2 °F100 %30.16 in2.5 miSouth (170°)5.8 mphMostly Cloudy
3:35 AM10.4 °F6.8 °F85 %30.17 in3.0 miSW (220°)5.8 mphPartly Cloudy
3:55 AM10.4 °F6.8 °F85 %30.16 in1.8 miCalmMostly Cloudy
4:15 AM10.4 °F8.6 °F92 %30.15 in1.0 miCalmMostly Cloudy
4:35 AM10.4 °F8.6 °F92 %30.16 in0.2 miCalm
4:55 AM10.4 °F8.6 °F92 %30.16 in1.5 miCalmClear
5:15 AM10.4 °F8.6 °F92 %30.15 in1.8 miCalmClear
5:35 AM10.4 °F8.6 °F92 %30.14 in1.0 miSSW (200°)4.6 mphClear
5:55 AM8.6 °F6.8 °F92 %30.13 in0.2 miCalm
6:15 AM10.4 °F8.6 °F92 %30.13 in0.2 miCalm
6:35 AM10.4 °F8.6 °F92 %30.13 in1.0 miCalmClear
6:47 AM12.2 °F10.4 °F92 %30.13 in3.0 miCalmScattered Clouds
7:26 AM8.6 °F6.8 °F92 %30.14 in1.5 miCalmScattered Clouds
7:51 AM10.4 °F8.6 °F92 %30.15 in1.5 miCalmMostly Cloudy
8:55 AM14.0 °F14.0 °F100 %30.14 in2.0 miCalmScattered Clouds
9:50 AM17.6 °F17.6 °F100 %30.13 in2.0 miWest (270°)3.5 mphScattered Clouds
10:55 AM19.4 °F17.6 °F93 %30.13 in2.0 miWest (280°)3.5 mphScattered Clouds
11:40 AM24.8 °F21.2 °F86 %30.11 in3.0 miCalmScattered Clouds
11:47 AM24.8 °F23.0 °F93 %30.11 in3.0 miCalmScattered Clouds
12:52 PM28.4 °F23.0 °F80 %30.07 in3.0 miSouth (190°)3.5 mphMostly Cloudy
1:47 PM33.8 °F23.0 °F65 %30.04 in7.0 miCalmMostly Cloudy
3:10 PM32.0 °F24.8 °F75 %29.99 in7.0 miCalmMostly Cloudy
3:58 PM30.2 °F24.8 °F80 %29.98 in7.0 miCalmOvercast
5:50 PM32.0 °F26.6 °F80 %29.97 in6.0 miCalmHaze
6:50 PM32.0 °F28.4 °F87 %29.97 in8.0 miCalmHaze
7:55 PM30.2 °F28.4 °F93 %29.97 in10.0 miNorth (350°)8.1 mphMostly Cloudy
8:49 PM30.2 °F28.4 °F93 %29.95 in10.0 miNW (320°)5.8 mphPartly Cloudy
9:15 PM28.4 °F26.6 °F93 %29.95 in4.0 miSouth (170°)3.5 mphMostly Cloudy
9:35 PM28.4 °F26.6 °F93 %29.95 in4.0 miWSW (240°)5.8 mphOvercast
9:55 PM28.4 °F24.8 °F86 %29.95 in5.0 miCalmOvercast
10:15 PM28.4 °F26.6 °F93 %29.94 in5.0 miCalmScattered Clouds
10:35 PM28.4 °F26.6 °F93 %29.94 in5.0 miCalmPartly Cloudy
10:55 PM28.4 °F26.6 °F93 %29.94 in5.0 miCalmScattered Clouds
11:15 PM28.4 °F24.8 °F86 %29.93 in5.0 miCalmMostly Cloudy
11:35 PM28.4 °F24.8 °F86 %29.93 in5.0 miNW (310°)4.6 mphOvercast
Hourly data recorded from KPVU, located miles away from Goshen, Utah







STORIES FROM OUR PARTNERS